Time,TemperatureF,DewpointF,PressureIn,WindDirection,WindDirectionDegrees,WindSpeedMPH,WindSpeedGustMPH,Humidity,HourlyPrecipIn,Conditions,Clouds,dailyrainin,SolarRadiationWatts/m^2,SoftwareType,DateUTC
2013-02-21 00:00:00,22.5,19.2,29.92,North,0,12.0,17.0,87,0.00,,---,0.00,0.00,VWS V14.01,2013-02-21 06:00:00,
2013-02-21 00:03:00,22.5,19.0,29.92,NW,313,13.0,17.0,86,0.00,,---,0.00,0.00,VWS V14.01,2013-02-21 06:03:00,
2013-02-21 00:05:00,22.5,19.0,29.92,North,354,13.0,17.0,86,0.00,,---,0.00,0.00,VWS V14.01,2013-02-21 06:05:00,
2013-02-21 00:08:00,22.7,18.9,29.92,North,0,8.0,16.0,85,0.00,,---,0.00,0.00,VWS V14.01,2013-02-21 06:08:00,
2013-02-21 00:10:00,22.9,19.1,29.92,NW,306,11.0,16.0,85,0.00,,---,0.00,0.00,VWS V14.01,2013-02-21 06:10:00,
2013-02-21 00:13:00,23.0,18.6,29.92,SSE,148,11.0,16.0,83,0.00,,---,0.00,0.00,VWS V14.01,2013-02-21 06:13:00,
2013-02-21 00:15:00,23.0,18.6,29.92,North,0,10.0,16.0,83,0.00,,---,0.00,0.00,VWS V14.01,2013-02-21 06:15:00,
2013-02-21 00:18:00,23.2,18.2,29.92,North,0,12.0,17.0,81,0.00,,---,0.00,0.00,VWS V14.01,2013-02-21 06:18:00,
2013-02-21 00:20:00,23.2,18.2,29.92,East,93,9.0,17.0,81,0.00,,---,0.00,0.00,VWS V14.01,2013-02-21 06:20:00,
2013-02-21 00:23:00,23.2,18.0,29.92,North,0,10.0,16.0,80,0.00,,---,0.00,0.00,VWS V14.01,2013-02-21 06:23:00,
2013-02-21 00:25:00,23.3,18.1,29.92,NW,319,10.0,16.0,80,0.00,,---,0.00,0.00,VWS V14.01,2013-02-21 06:25:00,
2013-02-21 00:28:00,23.3,17.8,29.92,WNW,287,14.0,16.0,79,0.00,,---,0.00,0.00,VWS V14.01,2013-02-21 06:28:00,
2013-02-21 00:30:00,23.3,17.8,29.92,SW,234,13.0,16.0,79,0.00,,---,0.00,0.00,VWS V14.01,2013-02-21 06:30:00,
2013-02-21 00:33:00,23.3,17.2,29.92,NNW,328,13.0,18.0,77,0.00,,---,0.00,0.00,VWS V14.01,2013-02-21 06:33:00,
2013-02-21 00:35:00,23.3,17.2,29.92,NNW,329,19.0,19.0,77,0.00,,---,0.00,0.00,VWS V14.01,2013-02-21 06:35:00,
2013-02-21 00:38:00,23.5,16.8,29.92,North,359,12.0,19.0,75,0.00,,---,0.00,0.00,VWS V14.01,2013-02-21 06:38:00,
2013-02-21 00:40:00,23.5,16.8,29.92,ESE,123,14.0,19.0,75,0.00,,---,0.00,0.00,VWS V14.01,2013-02-21 06:40:00,
2013-02-21 00:43:00,23.3,16.2,29.91,North,0,17.0,20.0,74,0.00,,---,0.00,0.00,VWS V14.01,2013-02-21 06:43:00,
2013-02-21 00:45:00,23.3,16.2,29.91,NNW,347,13.0,20.0,74,0.00,,---,0.00,0.00,VWS V14.01,2013-02-21 06:45:00,
2013-02-21 00:49:00,23.3,16.2,29.91,SE,130,11.0,19.0,74,0.00,,---,0.00,0.00,VWS V14.01,2013-02-21 06:49:00,
2013-02-21 00:50:00,23.2,16.2,29.91,North,0,10.0,19.0,74,0.00,,---,0.00,0.00,VWS V14.01,2013-02-21 06:50:00,
2013-02-21 00:54:00,23.0,16.3,29.91,SSE,151,14.0,20.0,75,0.00,,---,0.00,0.00,VWS V14.01,2013-02-21 06:54:00,
2013-02-21 00:55:00,23.0,16.3,29.91,SSE,151,14.0,20.0,75,0.00,,---,0.00,0.00,VWS V14.01,2013-02-21 06:55:00,
2013-02-21 00:59:00,23.0,16.6,29.90,ESE,102,13.0,19.0,76,0.00,,---,0.00,0.00,VWS V14.01,2013-02-21 06:59:00,
2013-02-21 01:00:00,23.0,16.6,29.90,ESE,102,13.0,19.0,76,0.00,,---,0.00,0.00,VWS V14.01,2013-02-21 07:00:00,
2013-02-21 01:04:00,23.0,16.9,29.90,NW,322,16.0,18.0,77,0.00,,---,0.00,0.00,VWS V14.01,2013-02-21 07:04:00,
2013-02-21 01:05:00,23.0,16.9,29.90,NW,322,16.0,18.0,77,0.00,,---,0.00,0.00,VWS V14.01,2013-02-21 07:05:00,
2013-02-21 01:09:00,23.0,16.9,29.90,North,356,13.0,18.0,77,0.00,,---,0.00,0.00,VWS V14.01,2013-02-21 07:09:00,
2013-02-21 01:10:00,23.0,16.9,29.90,North,353,18.0,19.0,77,0.00,,---,0.00,0.00,VWS V14.01,2013-02-21 07:10:00,
2013-02-21 01:14:00,22.9,17.1,29.90,North,0,16.0,19.0,78,0.00,,---,0.00,0.00,VWS V14.01,2013-02-21 07:14:00,
2013-02-21 01:15:00,22.9,17.1,29.90,North,0,19.0,20.0,78,0.00,,---,0.00,0.00,VWS V14.01,2013-02-21 07:15:00,
2013-02-21 01:19:00,22.7,17.2,29.90,NW,306,17.0,17.0,79,0.00,,---,0.00,0.00,VWS V14.01,2013-02-21 07:19:00,
2013-02-21 01:20:00,22.7,17.2,29.90,WSW,246,11.0,19.0,79,0.00,,---,0.00,0.00,VWS V14.01,2013-02-21 07:20:00,
2013-02-21 01:24:00,22.7,17.2,29.90,NW,313,12.0,18.0,79,0.00,,---,0.00,0.00,VWS V14.01,2013-02-21 07:24:00,
2013-02-21 01:25:00,22.7,17.2,29.90,NNW,336,18.0,18.0,79,0.00,,---,0.00,0.00,VWS V14.01,2013-02-21 07:25:00,
2013-02-21 01:29:00,22.5,17.6,29.89,North,0,12.0,16.0,81,0.00,,---,0.00,0.00,VWS V14.01,2013-02-21 07:29:00,
2013-02-21 01:30:00,22.5,17.3,29.89,North,0,14.0,18.0,80,0.00,,---,0.00,0.00,VWS V14.01,2013-02-21 07:30:00,
2013-02-21 01:34:00,22.5,17.9,29.89,North,0,16.0,16.0,82,0.00,,---,0.00,0.00,VWS V14.01,2013-02-21 07:34:00,
2013-02-21 01:35:00,22.5,17.6,29.89,NW,320,10.0,17.0,81,0.00,,---,0.00,0.00,VWS V14.01,2013-02-21 07:35:00,
2013-02-21 01:39:00,22.5,17.9,29.89,North,0,14.0,14.0,82,0.00,,---,0.00,0.00,VWS V14.01,2013-02-21 07:39:00,
2013-02-21 01:40:00,22.5,17.9,29.89,NW,312,14.0,18.0,82,0.00,,---,0.00,0.00,VWS V14.01,2013-02-21 07:40:00,
2013-02-21 01:44:00,22.4,18.0,29.87,NW,318,14.0,19.0,83,0.00,,---,0.00,0.00,VWS V14.01,2013-02-21 07:44:00,
2013-02-21 01:45:00,22.4,18.0,29.87,North,354,16.0,18.0,83,0.00,,---,0.00,0.00,VWS V14.01,2013-02-21 07:45:00,
2013-02-21 01:50:00,22.4,18.3,29.87,South,181,7.0,16.0,84,0.00,,---,0.00,0.00,VWS V14.01,2013-02-21 07:50:00,
2013-02-21 01:55:00,22.4,18.3,29.87,NW,318,13.0,13.0,84,0.00,,---,0.00,0.00,VWS V14.01,2013-02-21 07:55:00,
2013-02-21 02:00:00,22.4,18.6,29.89,North,0,14.0,17.0,85,0.00,,---,0.00,0.00,VWS V14.01,2013-02-21 08:00:00,
2013-02-21 02:05:00,22.4,18.9,29.89,NW,312,9.0,13.0,86,0.00,,---,0.00,0.00,VWS V14.01,2013-02-21 08:05:00,
2013-02-21 02:10:00,22.4,18.9,29.89,WNW,294,13.0,13.0,86,0.00,,---,0.00,0.00,VWS V14.01,2013-02-21 08:10:00,
2013-02-21 02:15:00,22.4,19.1,29.86,North,350,16.0,16.0,87,0.00,,---,0.00,0.00,VWS V14.01,2013-02-21 08:15:00,
2013-02-21 02:20:00,22.4,19.4,29.86,East,79,10.0,14.0,88,0.00,,---,0.00,0.00,VWS V14.01,2013-02-21 08:20:00,
2013-02-21 02:25:00,22.4,19.7,29.86,WNW,284,13.0,17.0,89,0.00,,---,0.00,0.00,VWS V14.01,2013-02-21 08:25:00,
2013-02-21 02:30:00,22.4,19.7,29.87,WNW,282,8.0,13.0,89,0.00,,---,0.00,0.00,VWS V14.01,2013-02-21 08:30:00,
2013-02-21 02:35:00,22.5,20.0,29.87,North,0,12.0,15.0,90,0.00,,---,0.00,0.00,VWS V14.01,2013-02-21 08:35:00,
2013-02-21 02:40:00,22.5,20.3,29.87,North,352,11.0,14.0,91,0.00,,---,0.00,0.00,VWS V14.01,2013-02-21 08:40:00,
2013-02-21 02:45:00,22.5,20.3,29.84,North,356,10.0,15.0,91,0.00,,---,0.00,0.00,VWS V14.01,2013-02-21 08:45:00,
2013-02-21 02:50:00,22.5,20.3,29.84,North,0,16.0,21.0,91,0.00,,---,0.00,0.00,VWS V14.01,2013-02-21 08:50:00,
2013-02-21 02:55:00,22.5,20.5,29.84,North,0,12.0,17.0,92,0.00,,---,0.00,0.00,VWS V14.01,2013-02-21 08:55:00,
2013-02-21 03:00:00,22.5,20.5,29.82,NW,304,13.0,17.0,92,0.00,,---,0.00,0.00,VWS V14.01,2013-02-21 09:00:00,
2013-02-21 03:01:00,22.5,20.5,29.82,West,280,10.0,15.0,92,0.00,,---,0.00,0.00,VWS V14.01,2013-02-21 09:01:00,
2013-02-21 03:05:00,22.5,20.5,29.82,WNW,291,14.0,17.0,92,0.00,,---,0.00,0.00,VWS V14.01,2013-02-21 09:05:00,
2013-02-21 03:06:00,22.5,20.5,29.82,SSE,148,17.0,18.0,92,0.00,,---,0.00,0.00,VWS V14.01,2013-02-21 09:06:00,
2013-02-21 03:10:00,22.5,20.5,29.82,NNW,328,11.0,18.0,92,0.00,,---,0.00,0.00,VWS V14.01,2013-02-21 09:10:00,
2013-02-21 03:11:00,22.5,20.5,29.82,West,281,13.0,15.0,92,0.00,,---,0.00,0.00,VWS V14.01,2013-02-21 09:11:00,
2013-02-21 03:15:00,22.5,20.5,29.82,North,0,13.0,16.0,92,0.00,,---,0.00,0.00,VWS V14.01,2013-02-21 09:15:00,
2013-02-21 03:16:00,22.5,20.5,29.82,WNW,292,14.0,18.0,92,0.00,,---,0.00,0.00,VWS V14.01,2013-02-21 09:16:00,
2013-02-21 03:20:00,22.5,20.5,29.82,WNW,289,16.0,19.0,92,0.00,,---,0.00,0.00,VWS V14.01,2013-02-21 09:20:00,
2013-02-21 03:21:00,22.5,20.5,29.82,North,0,18.0,18.0,92,0.00,,---,0.00,0.00,VWS V14.01,2013-02-21 09:21:00,
2013-02-21 03:25:00,22.5,20.5,29.82,North,0,13.0,18.0,92,0.00,,---,0.00,0.00,VWS V14.01,2013-02-21 09:25:00,
2013-02-21 03:26:00,22.5,20.5,29.82,NW,322,13.0,16.0,92,0.00,,---,0.00,0.00,VWS V14.01,2013-02-21 09:26:00,
2013-02-21 03:30:00,22.5,20.5,29.80,North,0,14.0,18.0,92,0.00,,---,0.00,0.00,VWS V14.01,2013-02-21 09:30:00,
2013-02-21 03:31:00,22.5,20.5,29.80,North,356,14.0,17.0,92,0.00,,---,0.00,0.00,VWS V14.01,2013-02-21 09:31:00,
2013-02-21 03:35:00,22.5,20.8,29.80,WNW,291,14.0,18.0,93,0.00,,---,0.00,0.00,VWS V14.01,2013-02-21 09:35:00,
2013-02-21 03:36:00,22.5,20.8,29.80,North,359,14.0,17.0,93,0.00,,---,0.00,0.00,VWS V14.01,2013-02-21 09:36:00,
2013-02-21 03:40:00,22.4,20.7,29.80,North,0,13.0,19.0,93,0.00,,---,0.00,0.00,VWS V14.01,2013-02-21 09:40:00,
2013-02-21 03:41:00,22.4,20.7,29.80,North,0,12.0,18.0,93,0.00,,---,0.00,0.00,VWS V14.01,2013-02-21 09:41:00,
2013-02-21 03:45:00,22.4,20.7,29.80,NW,306,11.0,19.0,93,0.00,,---,0.00,0.00,VWS V14.01,2013-02-21 09:45:00,
2013-02-21 03:46:00,22.4,20.7,29.80,North,0,19.0,20.0,93,0.00,,---,0.00,0.00,VWS V14.01,2013-02-21 09:46:00,
2013-02-21 03:50:00,22.5,20.8,29.80,WNW,295,15.0,20.0,93,0.00,,---,0.00,0.00,VWS V14.01,2013-02-21 09:50:00,
2013-02-21 03:51:00,22.4,20.7,29.80,NW,326,11.0,16.0,93,0.00,,---,0.00,0.00,VWS V14.01,2013-02-21 09:51:00,
2013-02-21 03:55:00,22.5,20.8,29.80,WNW,287,17.0,17.0,93,0.00,,---,0.00,0.00,VWS V14.01,2013-02-21 09:55:00,
2013-02-21 03:56:00,22.5,20.8,29.80,WNW,291,15.0,21.0,93,0.00,,---,0.00,0.00,VWS V14.01,2013-02-21 09:56:00,
2013-02-21 04:00:00,22.4,20.7,29.80,SW,215,12.0,21.0,93,0.00,,---,0.00,0.00,VWS V14.01,2013-02-21 10:00:00,
2013-02-21 04:01:00,22.4,20.7,29.80,North,0,10.0,19.0,93,0.00,,---,0.00,0.00,VWS V14.01,2013-02-21 10:01:00,
2013-02-21 04:05:00,22.4,20.7,29.80,North,0,11.0,19.0,93,0.00,,---,0.00,0.00,VWS V14.01,2013-02-21 10:05:00,
2013-02-21 04:06:00,22.4,20.7,29.80,NNW,333,12.0,18.0,93,0.00,,---,0.00,0.00,VWS V14.01,2013-02-21 10:06:00,
2013-02-21 04:10:00,22.4,20.7,29.80,ESE,113,11.0,18.0,93,0.00,,---,0.00,0.00,VWS V14.01,2013-02-21 10:10:00,
2013-02-21 04:12:00,22.4,20.7,29.80,North,0,11.0,16.0,93,0.00,,---,0.00,0.00,VWS V14.01,2013-02-21 10:12:00,
2013-02-21 04:15:00,22.4,20.7,29.80,WNW,298,12.0,16.0,93,0.00,,---,0.00,0.00,VWS V14.01,2013-02-21 10:15:00,
2013-02-21 04:17:00,22.4,20.7,29.80,NW,308,18.0,18.0,93,0.00,,---,0.00,0.00,VWS V14.01,2013-02-21 10:17:00,
2013-02-21 04:20:00,22.4,20.7,29.80,NW,318,11.0,18.0,93,0.00,,---,0.00,0.00,VWS V14.01,2013-02-21 10:20:00,
2013-02-21 04:22:00,22.4,20.7,29.80,ESE,116,12.0,17.0,93,0.00,,---,0.00,0.00,VWS V14.01,2013-02-21 10:22:00,
2013-02-21 04:25:00,22.4,20.7,29.80,WNW,294,12.0,17.0,93,0.00,,---,0.00,0.00,VWS V14.01,2013-02-21 10:25:00,
2013-02-21 04:27:00,22.4,20.7,29.80,SSW,195,10.0,16.0,93,0.00,,---,0.00,0.00,VWS V14.01,2013-02-21 10:27:00,
2013-02-21 04:30:00,22.2,20.5,29.80,ENE,78,14.0,16.0,93,0.00,,---,0.00,0.00,VWS V14.01,2013-02-21 10:30:00,
2013-02-21 04:32:00,22.2,20.5,29.80,North,0,13.0,17.0,93,0.00,,---,0.00,0.00,VWS V14.01,2013-02-21 10:32:00,
2013-02-21 04:35:00,22.2,20.5,29.80,NNW,328,14.0,17.0,93,0.00,,---,0.00,0.00,VWS V14.01,2013-02-21 10:35:00,
2013-02-21 04:37:00,22.2,20.5,29.80,North,0,14.0,14.0,93,0.00,,---,0.00,0.00,VWS V14.01,2013-02-21 10:37:00,
2013-02-21 04:40:00,22.2,20.7,29.80,WNW,287,12.0,16.0,94,0.00,,---,0.00,0.00,VWS V14.01,2013-02-21 10:40:00,
2013-02-21 04:42:00,22.2,20.7,29.80,North,349,14.0,17.0,94,0.00,,---,0.00,0.00,VWS V14.01,2013-02-21 10:42:00,
2013-02-21 04:45:00,22.2,20.7,29.79,North,0,14.0,17.0,94,0.00,,---,0.00,0.00,VWS V14.01,2013-02-21 10:45:00,
2013-02-21 04:47:00,22.1,20.6,29.79,North,0,12.0,17.0,94,0.00,,---,0.00,0.00,VWS V14.01,2013-02-21 10:47:00,
2013-02-21 04:50:00,22.1,20.6,29.79,North,0,13.0,17.0,94,0.00,,---,0.00,0.00,VWS V14.01,2013-02-21 10:50:00,
2013-02-21 04:52:00,22.1,20.6,29.79,WSW,241,11.0,16.0,94,0.00,,---,0.00,0.00,VWS V14.01,2013-02-21 10:52:00,
2013-02-21 04:55:00,22.1,20.6,29.79,NW,323,12.0,16.0,94,0.00,,---,0.00,0.00,VWS V14.01,2013-02-21 10:55:00,
2013-02-21 04:57:00,22.1,20.6,29.79,East,79,10.0,14.0,94,0.00,,---,0.00,0.00,VWS V14.01,2013-02-21 10:57:00,
2013-02-21 05:00:00,21.9,20.4,29.77,SSW,195,12.0,18.0,94,0.00,,---,0.00,0.00,VWS V14.01,2013-02-21 11:00:00,
2013-02-21 05:02:00,21.9,20.4,29.77,ESE,119,12.0,14.0,94,0.00,,---,0.00,0.00,VWS V14.01,2013-02-21 11:02:00,
2013-02-21 05:05:00,21.9,20.4,29.77,NNW,333,11.0,14.0,94,0.00,,---,0.00,0.00,VWS V14.01,2013-02-21 11:05:00,
2013-02-21 05:07:00,21.9,20.4,29.77,North,0,12.0,17.0,94,0.00,,---,0.00,0.00,VWS V14.01,2013-02-21 11:07:00,
2013-02-21 05:10:00,21.9,20.4,29.77,North,0,8.0,17.0,94,0.00,,---,0.00,0.00,VWS V14.01,2013-02-21 11:10:00,
2013-02-21 05:12:00,21.9,20.4,29.77,WNW,295,11.0,16.0,94,0.00,,---,0.00,0.00,VWS V14.01,2013-02-21 11:12:00,
2013-02-21 05:15:00,21.9,20.4,29.78,NW,315,12.0,16.0,94,0.00,,---,0.00,0.00,VWS V14.01,2013-02-21 11:15:00,
2013-02-21 05:18:00,21.9,20.4,29.78,North,0,13.0,14.0,94,0.00,,---,0.00,0.00,VWS V14.01,2013-02-21 11:18:00,
2013-02-21 05:20:00,21.9,20.4,29.78,North,350,10.0,14.0,94,0.00,,---,0.00,0.00,VWS V14.01,2013-02-21 11:20:00,
2013-02-21 05:23:00,21.9,20.4,29.78,South,189,10.0,15.0,94,0.00,,---,0.00,0.00,VWS V14.01,2013-02-21 11:23:00,
2013-02-21 05:25:00,21.9,20.4,29.78,SE,143,12.0,15.0,94,0.00,,---,0.00,0.00,VWS V14.01,2013-02-21 11:25:00,
2013-02-21 05:28:00,21.9,20.4,29.78,North,0,12.0,14.0,94,0.00,,---,0.00,0.00,VWS V14.01,2013-02-21 11:28:00,
2013-02-21 05:30:00,21.9,20.4,29.78,NNW,346,12.0,17.0,94,0.00,,---,0.00,0.00,VWS V14.01,2013-02-21 11:30:00,
2013-02-21 05:33:00,21.8,20.3,29.78,NW,312,13.0,16.0,94,0.00,,---,0.00,0.00,VWS V14.01,2013-02-21 11:33:00,
2013-02-21 05:35:00,21.8,20.3,29.78,North,0,11.0,16.0,94,0.00,,---,0.00,0.00,VWS V14.01,2013-02-21 11:35:00,
2013-02-21 05:38:00,21.8,20.3,29.78,ESE,103,10.0,17.0,94,0.00,,---,0.00,0.00,VWS V14.01,2013-02-21 11:38:00,
2013-02-21 05:40:00,21.8,20.3,29.78,SE,130,14.0,17.0,94,0.00,,---,0.00,0.00,VWS V14.01,2013-02-21 11:40:00,
2013-02-21 05:43:00,21.8,20.3,29.77,North,0,13.0,18.0,94,0.00,,---,0.00,0.00,VWS V14.01,2013-02-21 11:43:00,
2013-02-21 05:45:00,21.8,20.3,29.77,SW,226,14.0,18.0,94,0.00,,---,0.00,0.00,VWS V14.01,2013-02-21 11:45:00,
2013-02-21 05:48:00,21.8,20.3,29.77,North,0,17.0,18.0,94,0.00,,---,0.00,0.00,VWS V14.01,2013-02-21 11:48:00,
2013-02-21 05:50:00,21.6,20.1,29.77,WNW,292,17.0,18.0,94,0.00,,---,0.00,0.00,VWS V14.01,2013-02-21 11:50:00,
2013-02-21 05:53:00,21.6,20.1,29.77,SE,136,17.0,18.0,94,0.00,,---,0.00,0.00,VWS V14.01,2013-02-21 11:53:00,
2013-02-21 05:55:00,21.6,20.1,29.77,West,268,14.0,18.0,94,0.00,,---,0.00,0.00,VWS V14.01,2013-02-21 11:55:00,
2013-02-21 05:58:00,21.6,20.1,29.76,WNW,285,12.0,16.0,94,0.00,,---,0.00,0.00,VWS V14.01,2013-02-21 11:58:00,
2013-02-21 06:00:00,21.6,20.1,29.76,West,281,10.0,16.0,94,0.00,,---,0.00,0.00,VWS V14.01,2013-02-21 12:00:00,
2013-02-21 06:03:00,21.6,20.1,29.76,WSW,250,14.0,17.0,94,0.00,,---,0.00,0.00,VWS V14.01,2013-02-21 12:03:00,
2013-02-21 06:05:00,21.6,20.1,29.76,North,0,13.0,17.0,94,0.00,,---,0.00,0.00,VWS V14.01,2013-02-21 12:05:00,
2013-02-21 06:08:00,21.6,20.1,29.76,NNW,340,12.0,16.0,94,0.00,,---,0.00,0.00,VWS V14.01,2013-02-21 12:08:00,
2013-02-21 06:10:00,21.6,20.1,29.76,North,0,16.0,18.0,94,0.00,,---,0.00,0.00,VWS V14.01,2013-02-21 12:10:00,
2013-02-21 06:13:00,21.4,19.9,29.75,ESE,106,16.0,18.0,94,0.00,,---,0.00,0.00,VWS V14.01,2013-02-21 12:13:00,
2013-02-21 06:15:00,21.4,19.9,29.75,WSW,244,15.0,18.0,94,0.00,,---,0.00,0.00,VWS V14.01,2013-02-21 12:15:00,
2013-02-21 06:19:00,21.4,19.9,29.75,NW,326,11.0,18.0,94,0.00,,---,0.00,0.00,VWS V14.01,2013-02-21 12:19:00,
2013-02-21 06:20:00,21.4,19.9,29.75,ESE,121,10.0,18.0,94,0.00,,---,0.00,0.00,VWS V14.01,2013-02-21 12:20:00,
2013-02-21 06:24:00,21.4,19.9,29.75,North,0,10.0,16.0,94,0.00,,---,0.00,0.00,VWS V14.01,2013-02-21 12:24:00,
2013-02-21 06:25:00,21.4,19.9,29.75,NW,305,12.0,16.0,94,0.00,,---,0.00,0.00,VWS V14.01,2013-02-21 12:25:00,
2013-02-21 06:29:00,21.4,19.9,29.77,NNW,333,7.0,13.0,94,0.00,,---,0.00,0.00,VWS V14.01,2013-02-21 12:29:00,
2013-02-21 06:30:00,21.4,19.9,29.77,East,79,10.0,13.0,94,0.00,,---,0.00,0.00,VWS V14.01,2013-02-21 12:30:00,
2013-02-21 06:34:00,21.4,19.9,29.77,WNW,302,16.0,16.0,94,0.00,,---,0.00,0.00,VWS V14.01,2013-02-21 12:34:00,
2013-02-21 06:35:00,21.4,19.9,29.77,North,349,11.0,16.0,94,0.00,,---,0.00,0.00,VWS V14.01,2013-02-21 12:35:00,
2013-02-21 06:39:00,21.4,19.9,29.77,NNW,330,13.0,16.0,94,0.00,,---,0.00,0.00,VWS V14.01,2013-02-21 12:39:00,
2013-02-21 06:40:00,21.4,19.9,29.77,North,0,14.0,16.0,94,0.00,,---,0.00,0.00,VWS V14.01,2013-02-21 12:40:00,
2013-02-21 06:45:00,21.4,19.9,29.77,North,352,11.0,12.0,94,0.00,,---,0.00,0.00,VWS V14.01,2013-02-21 12:45:00,
2013-02-21 06:50:00,21.4,19.9,29.77,NW,318,10.0,12.0,94,0.00,,---,0.00,0.00,VWS V14.01,2013-02-21 12:50:00,
2013-02-21 06:55:00,21.3,19.9,29.77,WNW,285,14.0,16.0,94,0.00,,---,0.00,0.00,VWS V14.01,2013-02-21 12:55:00,
2013-02-21 07:00:00,21.3,19.9,29.76,NW,322,16.0,18.0,94,0.00,,---,0.00,0.00,VWS V14.01,2013-02-21 13:00:00,
2013-02-21 07:05:00,21.1,19.6,29.76,North,353,17.0,20.0,94,0.00,,---,0.00,0.00,VWS V14.01,2013-02-21 13:05:00,
2013-02-21 07:06:00,21.1,19.6,29.76,NNW,347,17.0,17.0,94,0.00,,---,0.00,0.00,VWS V14.01,2013-02-21 13:06:00,
2013-02-21 07:10:00,21.1,19.6,29.76,West,281,15.0,17.0,94,0.00,,---,0.00,0.00,VWS V14.01,2013-02-21 13:10:00,
2013-02-21 07:11:00,21.0,19.5,29.76,SW,226,18.0,19.0,94,0.00,,---,0.00,0.00,VWS V14.01,2013-02-21 13:11:00,
2013-02-21 07:15:00,21.0,19.5,29.72,North,0,15.0,22.0,94,0.00,,---,0.00,0.00,VWS V14.01,2013-02-21 13:15:00,
2013-02-21 07:16:00,21.0,19.5,29.72,North,0,20.0,20.0,94,0.00,,---,0.00,0.00,VWS V14.01,2013-02-21 13:16:00,
2013-02-21 07:20:00,20.8,19.4,29.72,ENE,59,14.0,24.0,94,0.00,,---,0.00,0.00,VWS V14.01,2013-02-21 13:20:00,
2013-02-21 07:21:00,20.8,19.4,29.72,East,90,17.0,20.0,94,0.00,,---,0.00,0.00,VWS V14.01,2013-02-21 13:21:00,
2013-02-21 07:25:00,20.8,19.4,29.72,North,359,17.0,20.0,94,0.00,,---,0.00,0.00,VWS V14.01,2013-02-21 13:25:00,
2013-02-21 07:26:00,20.8,19.4,29.72,North,359,14.0,17.0,94,0.00,,---,0.00,0.00,VWS V14.01,2013-02-21 13:26:00,
2013-02-21 07:30:00,20.6,19.1,29.74,NW,318,18.0,19.0,94,0.00,,---,0.00,0.00,VWS V14.01,2013-02-21 13:30:00,
2013-02-21 07:31:00,20.6,19.1,29.74,NW,322,18.0,21.0,94,0.00,,---,0.00,0.00,VWS V14.01,2013-02-21 13:31:00,
2013-02-21 07:35:00,20.6,19.1,29.74,ENE,64,20.0,21.0,94,0.00,,---,0.00,0.00,VWS V14.01,2013-02-21 13:35:00,
2013-02-21 07:36:00,20.6,19.1,29.74,ESE,121,17.0,20.0,94,0.00,,---,0.00,0.00,VWS V14.01,2013-02-21 13:36:00,
2013-02-21 07:40:00,20.6,19.1,29.74,North,0,16.0,20.0,94,0.00,,---,0.00,0.00,VWS V14.01,2013-02-21 13:40:00,
2013-02-21 07:41:00,20.6,19.1,29.74,North,359,19.0,19.0,94,0.00,,---,0.00,0.00,VWS V14.01,2013-02-21 13:41:00,
2013-02-21 07:45:00,20.6,19.1,29.74,West,271,16.0,20.0,94,0.00,,---,0.00,7.00,VWS V14.01,2013-02-21 13:45:00,
2013-02-21 07:46:00,20.6,19.1,29.74,West,281,16.0,20.0,94,0.00,,---,0.00,7.00,VWS V14.01,2013-02-21 13:46:00,
2013-02-21 07:50:00,20.5,19.0,29.74,South,175,18.0,20.0,94,0.00,,---,0.00,7.00,VWS V14.01,2013-02-21 13:50:00,
2013-02-21 07:51:00,20.5,19.0,29.74,West,280,16.0,19.0,94,0.00,,---,0.00,9.00,VWS V14.01,2013-02-21 13:51:00,
2013-02-21 07:55:00,20.5,19.0,29.74,SSE,162,21.0,21.0,94,0.00,,---,0.00,9.00,VWS V14.01,2013-02-21 13:55:00,
2013-02-21 07:56:00,20.5,19.0,29.74,NW,320,20.0,21.0,94,0.00,,---,0.00,14.00,VWS V14.01,2013-02-21 13:56:00,
2013-02-21 08:00:00,20.5,19.0,29.74,North,0,13.0,21.0,94,0.00,,---,0.00,18.00,VWS V14.01,2013-02-21 14:00:00,
2013-02-21 08:01:00,20.3,18.9,29.74,NNW,335,18.0,18.0,94,0.00,,---,0.00,18.00,VWS V14.01,2013-02-21 14:01:00,
2013-02-21 08:05:00,20.3,18.9,29.74,NNW,333,18.0,20.0,94,0.00,,---,0.00,23.00,VWS V14.01,2013-02-21 14:05:00,
2013-02-21 08:07:00,20.3,18.9,29.74,NNW,347,12.0,19.0,94,0.00,,---,0.00,21.00,VWS V14.01,2013-02-21 14:07:00,
2013-02-21 08:10:00,20.3,18.9,29.74,SW,226,7.0,19.0,94,0.00,,---,0.00,21.00,VWS V14.01,2013-02-21 14:10:00,
2013-02-21 08:12:00,20.3,18.9,29.74,SSE,158,10.0,11.0,94,0.00,,---,0.00,21.00,VWS V14.01,2013-02-21 14:12:00,
2013-02-21 08:15:00,20.3,18.6,29.76,NNW,344,16.0,17.0,93,0.00,,---,0.00,21.00,VWS V14.01,2013-02-21 14:15:00,
2013-02-21 08:17:00,20.2,18.5,29.76,SSW,200,15.0,17.0,93,0.00,,---,0.00,26.00,VWS V14.01,2013-02-21 14:17:00,
2013-02-21 08:20:00,20.2,18.5,29.76,East,82,19.0,19.0,93,0.00,,---,0.00,26.00,VWS V14.01,2013-02-21 14:20:00,
2013-02-21 08:22:00,20.2,18.5,29.76,SSE,160,17.0,19.0,93,0.00,,---,0.00,37.00,VWS V14.01,2013-02-21 14:22:00,
2013-02-21 08:25:00,20.2,18.8,29.76,WSW,258,14.0,19.0,94,0.00,,---,0.00,46.00,VWS V14.01,2013-02-21 14:25:00,
2013-02-21 08:27:00,20.2,18.5,29.76,North,0,15.0,17.0,93,0.00,,---,0.00,46.00,VWS V14.01,2013-02-21 14:27:00,
2013-02-21 08:30:00,20.2,18.5,29.74,North,0,16.0,22.0,93,0.00,,---,0.00,79.00,VWS V14.01,2013-02-21 14:30:00,
2013-02-21 08:32:00,20.0,18.3,29.74,West,261,17.0,20.0,93,0.00,,---,0.00,88.00,VWS V14.01,2013-02-21 14:32:00,
2013-02-21 08:35:00,20.0,18.3,29.71,North,0,13.0,17.0,93,0.00,,---,0.00,185.00,VWS V14.01,2013-02-21 14:35:00,
2013-02-21 08:37:00,20.0,18.3,29.74,NNW,340,17.0,19.0,93,0.00,,---,0.00,134.00,VWS V14.01,2013-02-21 14:37:00,
2013-02-21 08:40:00,20.2,18.5,29.74,North,0,13.0,19.0,93,0.00,,---,0.00,134.00,VWS V14.01,2013-02-21 14:40:00,
2013-02-21 08:42:00,20.2,18.8,29.74,NW,306,12.0,19.0,94,0.00,,---,0.00,160.00,VWS V14.01,2013-02-21 14:42:00,
2013-02-21 08:45:00,20.2,18.8,29.73,West,264,19.0,19.0,94,0.00,,---,0.00,167.00,VWS V14.01,2013-02-21 14:45:00,
2013-02-21 08:47:00,20.2,18.8,29.73,North,0,12.0,19.0,94,0.00,,---,0.00,174.00,VWS V14.01,2013-02-21 14:47:00,
2013-02-21 08:50:00,20.2,18.8,29.73,East,83,12.0,19.0,94,0.00,,---,0.00,190.00,VWS V14.01,2013-02-21 14:50:00,
2013-02-21 08:52:00,20.2,18.8,29.73,North,0,18.0,18.0,94,0.00,,---,0.00,181.00,VWS V14.01,2013-02-21 14:52:00,
2013-02-21 08:55:00,20.2,18.8,29.73,East,97,14.0,18.0,94,0.00,,---,0.00,176.00,VWS V14.01,2013-02-21 14:55:00,
2013-02-21 08:57:00,20.2,18.8,29.73,North,0,11.0,18.0,94,0.00,,---,0.00,179.00,VWS V14.01,2013-02-21 14:57:00,
2013-02-21 09:00:00,20.2,18.8,29.72,North,0,17.0,18.0,94,0.00,,---,0.00,151.00,VWS V14.01,2013-02-21 15:00:00,
2013-02-21 09:02:00,20.0,18.3,29.72,West,272,18.0,18.0,93,0.00,,---,0.00,118.00,VWS V14.01,2013-02-21 15:02:00,
2013-02-21 09:05:00,20.0,18.5,29.72,ENE,75,17.0,20.0,94,0.00,,---,0.00,120.00,VWS V14.01,2013-02-21 15:05:00,
2013-02-21 09:07:00,20.0,18.3,29.72,WSW,239,12.0,21.0,93,0.00,,---,0.00,81.00,VWS V14.01,2013-02-21 15:07:00,
2013-02-21 09:10:00,20.0,18.3,29.72,North,356,13.0,21.0,93,0.00,,---,0.00,97.00,VWS V14.01,2013-02-21 15:10:00,
2013-02-21 09:13:00,20.0,18.3,29.72,NW,323,12.0,19.0,93,0.00,,---,0.00,171.00,VWS V14.01,2013-02-21 15:13:00,
2013-02-21 09:15:00,20.0,18.3,29.72,NNW,342,19.0,19.0,93,0.00,,---,0.00,169.00,VWS V14.01,2013-02-21 15:15:00,
2013-02-21 09:18:00,20.0,18.3,29.72,SW,215,18.0,19.0,93,0.00,,---,0.00,164.00,VWS V14.01,2013-02-21 15:18:00,
2013-02-21 09:20:00,20.0,18.3,29.72,North,353,11.0,19.0,93,0.00,,---,0.00,162.00,VWS V14.01,2013-02-21 15:20:00,
2013-02-21 09:23:00,20.0,18.3,29.72,WNW,296,18.0,18.0,93,0.00,,---,0.00,155.00,VWS V14.01,2013-02-21 15:23:00,
2013-02-21 09:25:00,20.0,18.3,29.72,East,89,16.0,18.0,93,0.00,,---,0.00,157.00,VWS V14.01,2013-02-21 15:25:00,
2013-02-21 09:28:00,20.0,18.3,29.72,North,0,15.0,19.0,93,0.00,,---,0.00,176.00,VWS V14.01,2013-02-21 15:28:00,
2013-02-21 09:30:00,20.0,18.3,29.71,ENE,65,13.0,19.0,93,0.00,,---,0.00,179.00,VWS V14.01,2013-02-21 15:30:00,
2013-02-21 09:33:00,20.0,18.3,29.71,WNW,299,16.0,17.0,93,0.00,,---,0.00,185.00,VWS V14.01,2013-02-21 15:33:00,
2013-02-21 09:35:00,20.0,18.3,29.71,North,0,13.0,17.0,93,0.00,,---,0.00,185.00,VWS V14.01,2013-02-21 15:35:00,
2013-02-21 09:38:00,20.0,18.3,29.71,ENE,73,9.0,20.0,93,0.00,,---,0.00,165.00,VWS V14.01,2013-02-21 15:38:00,
2013-02-21 09:40:00,20.0,18.3,29.71,WNW,302,13.0,20.0,93,0.00,,---,0.00,165.00,VWS V14.01,2013-02-21 15:40:00,
2013-02-21 09:43:00,20.2,18.8,29.72,North,0,13.0,18.0,94,0.00,,---,0.00,192.00,VWS V14.01,2013-02-21 15:43:00,
2013-02-21 09:45:00,20.2,18.8,29.72,ESE,116,13.0,19.0,94,0.00,,---,0.00,194.00,VWS V14.01,2013-02-21 15:45:00,
2013-02-21 09:48:00,20.2,18.8,29.72,North,0,19.0,19.0,94,0.00,,---,0.00,204.00,VWS V14.01,2013-02-21 15:48:00,
2013-02-21 09:50:00,20.2,18.8,29.72,SSW,193,14.0,19.0,94,0.00,,---,0.00,204.00,VWS V14.01,2013-02-21 15:50:00,
2013-02-21 09:53:00,20.2,18.8,29.72,West,280,12.0,17.0,94,0.00,,---,0.00,225.00,VWS V14.01,2013-02-21 15:53:00,
2013-02-21 09:55:00,20.2,18.8,29.72,North,0,16.0,17.0,94,0.00,,---,0.00,225.00,VWS V14.01,2013-02-21 15:55:00,
2013-02-21 09:58:00,20.2,18.5,29.71,North,356,17.0,18.0,93,0.00,,---,0.00,225.00,VWS V14.01,2013-02-21 15:58:00,
2013-02-21 10:00:00,20.2,18.5,29.71,East,100,16.0,18.0,93,0.00,,---,0.00,225.00,VWS V14.01,2013-02-21 16:00:00,
2013-02-21 10:04:00,20.2,18.8,29.71,NW,326,14.0,17.0,94,0.00,,---,0.00,225.00,VWS V14.01,2013-02-21 16:04:00,
2013-02-21 10:05:00,20.2,18.8,29.71,North,0,14.0,17.0,94,0.00,,---,0.00,225.00,VWS V14.01,2013-02-21 16:05:00,
2013-02-21 10:09:00,20.2,18.5,29.71,NNW,343,10.0,14.0,93,0.00,,---,0.00,190.00,VWS V14.01,2013-02-21 16:09:00,
2013-02-21 10:10:00,20.2,18.5,29.71,North,0,11.0,14.0,93,0.00,,---,0.00,190.00,VWS V14.01,2013-02-21 16:10:00,
2013-02-21 10:14:00,20.3,18.6,29.72,WSW,244,10.0,12.0,93,0.00,,---,0.00,199.00,VWS V14.01,2013-02-21 16:14:00,
2013-02-21 10:15:00,20.3,18.6,29.72,SSE,147,9.0,12.0,93,0.00,,---,0.00,199.00,VWS V14.01,2013-02-21 16:15:00,
2013-02-21 10:19:00,20.3,18.6,29.72,SSW,200,5.0,11.0,93,0.00,,---,0.00,209.00,VWS V14.01,2013-02-21 16:19:00,
2013-02-21 10:20:00,20.3,18.6,29.72,SSW,200,5.0,11.0,93,0.00,,---,0.00,209.00,VWS V14.01,2013-02-21 16:20:00,
2013-02-21 10:24:00,20.3,18.6,29.72,WNW,301,12.0,13.0,93,0.00,,---,0.00,209.00,VWS V14.01,2013-02-21 16:24:00,
2013-02-21 10:25:00,20.3,18.6,29.72,WNW,301,12.0,13.0,93,0.00,,---,0.00,209.00,VWS V14.01,2013-02-21 16:25:00,
2013-02-21 10:29:00,20.2,18.5,29.72,North,349,13.0,14.0,93,0.00,,---,0.00,209.00,VWS V14.01,2013-02-21 16:29:00,
2013-02-21 10:30:00,20.2,18.5,29.72,SE,138,14.0,16.0,93,0.00,,---,0.00,209.00,VWS V14.01,2013-02-21 16:30:00,
2013-02-21 10:34:00,20.2,18.5,29.72,WNW,287,11.0,11.0,93,0.00,,---,0.00,229.00,VWS V14.01,2013-02-21 16:34:00,
2013-02-21 10:35:00,20.2,18.5,29.72,SW,227,10.0,16.0,93,0.00,,---,0.00,229.00,VWS V14.01,2013-02-21 16:35:00,
2013-02-21 10:39:00,20.3,18.9,29.72,NNW,337,14.0,14.0,94,0.00,,---,0.00,264.00,VWS V14.01,2013-02-21 16:39:00,
2013-02-21 10:40:00,20.3,18.6,29.72,NW,304,8.0,13.0,93,0.00,,---,0.00,234.00,VWS V14.01,2013-02-21 16:40:00,
2013-02-21 10:45:00,20.3,18.6,29.72,North,0,10.0,13.0,93,0.00,,---,0.00,276.00,VWS V14.01,2013-02-21 16:45:00,
2013-02-21 10:50:00,20.3,18.6,29.72,South,181,11.0,16.0,93,0.00,,---,0.00,287.00,VWS V14.01,2013-02-21 16:50:00,
2013-02-21 10:55:00,20.3,18.6,29.72,North,354,14.0,17.0,93,0.00,,---,0.00,276.00,VWS V14.01,2013-02-21 16:55:00,
2013-02-21 11:00:00,20.3,18.6,29.72,NE,41,13.0,16.0,93,0.00,,---,0.00,271.00,VWS V14.01,2013-02-21 17:00:00,
2013-02-21 11:05:00,20.5,19.0,29.72,NE,37,11.0,12.0,94,0.00,,---,0.00,267.00,VWS V14.01,2013-02-21 17:05:00,
2013-02-21 11:10:00,20.5,18.8,29.72,South,176,14.0,14.0,93,0.00,,---,0.00,243.00,VWS V14.01,2013-02-21 17:10:00,
2013-02-21 11:15:00,20.3,18.6,29.72,North,0,13.0,16.0,93,0.00,,---,0.00,248.00,VWS V14.01,2013-02-21 17:15:00,
2013-02-21 11:20:00,20.3,18.6,29.72,North,0,8.0,15.0,93,0.00,,---,0.00,250.00,VWS V14.01,2013-02-21 17:20:00,
2013-02-21 11:25:00,20.5,18.8,29.72,SE,141,13.0,14.0,93,0.00,,---,0.00,259.00,VWS V14.01,2013-02-21 17:25:00,
2013-02-21 11:30:00,20.5,18.8,29.70,NW,323,16.0,16.0,93,0.00,,---,0.00,278.00,VWS V14.01,2013-02-21 17:30:00,
2013-02-21 11:35:00,20.5,18.8,29.70,North,0,16.0,18.0,93,0.00,,---,0.00,283.00,VWS V14.01,2013-02-21 17:35:00,
2013-02-21 11:40:00,20.5,18.8,29.70,East,90,12.0,20.0,93,0.00,,---,0.00,274.00,VWS V14.01,2013-02-21 17:40:00,
2013-02-21 11:41:00,20.5,19.0,29.70,ENE,76,16.0,16.0,94,0.00,,---,0.00,301.00,VWS V14.01,2013-02-21 17:41:00,
2013-02-21 11:45:00,20.5,18.8,29.69,North,0,11.0,19.0,93,0.00,,---,0.00,297.00,VWS V14.01,2013-02-21 17:45:00,
2013-02-21 11:46:00,20.5,18.8,29.69,NW,312,14.0,18.0,93,0.00,,---,0.00,301.00,VWS V14.01,2013-02-21 17:46:00,
2013-02-21 11:50:00,20.5,18.8,29.69,East,82,14.0,18.0,93,0.00,,---,0.00,304.00,VWS V14.01,2013-02-21 17:50:00,
2013-02-21 11:51:00,20.5,19.0,29.69,NE,48,13.0,17.0,94,0.00,,---,0.00,303.00,VWS V14.01,2013-02-21 17:51:00,
2013-02-21 11:55:00,20.5,18.8,29.69,North,0,14.0,19.0,93,0.00,,---,0.00,313.00,VWS V14.01,2013-02-21 17:55:00,
2013-02-21 11:56:00,20.5,18.8,29.69,SSW,196,16.0,19.0,93,0.00,,---,0.00,315.00,VWS V14.01,2013-02-21 17:56:00,
2013-02-21 12:00:00,20.5,18.8,29.68,North,352,17.0,20.0,93,0.00,,---,0.00,322.00,VWS V14.01,2013-02-21 18:00:00,
2013-02-21 12:01:00,20.5,19.0,29.68,ENE,78,11.0,19.0,94,0.00,,---,0.00,329.00,VWS V14.01,2013-02-21 18:01:00,
2013-02-21 12:05:00,20.5,18.8,29.68,NE,54,12.0,21.0,93,0.00,,---,0.00,322.00,VWS V14.01,2013-02-21 18:05:00,
2013-02-21 12:06:00,20.5,18.8,29.68,ENE,62,17.0,18.0,93,0.00,,---,0.00,310.00,VWS V14.01,2013-02-21 18:06:00,
2013-02-21 12:10:00,20.5,18.8,29.68,North,0,22.0,22.0,93,0.00,,---,0.00,315.00,VWS V14.01,2013-02-21 18:10:00,
2013-02-21 12:11:00,20.5,18.8,29.68,NW,311,14.0,22.0,93,0.00,,---,0.00,324.00,VWS V14.01,2013-02-21 18:11:00,
2013-02-21 12:15:00,20.5,18.8,29.66,West,277,16.0,22.0,93,0.00,,---,0.00,315.00,VWS V14.01,2013-02-21 18:15:00,
2013-02-21 12:16:00,20.5,18.8,29.66,ENE,76,18.0,21.0,93,0.00,,---,0.00,324.00,VWS V14.01,2013-02-21 18:16:00,
2013-02-21 12:20:00,20.6,18.9,29.66,North,354,18.0,21.0,93,0.00,,---,0.00,334.00,VWS V14.01,2013-02-21 18:20:00,
2013-02-21 12:21:00,20.6,18.9,29.66,North,0,18.0,21.0,93,0.00,,---,0.00,350.00,VWS V14.01,2013-02-21 18:21:00,
2013-02-21 12:25:00,20.6,18.9,29.66,SSW,213,15.0,22.0,93,0.00,,---,0.00,357.00,VWS V14.01,2013-02-21 18:25:00,
2013-02-21 12:26:00,20.6,18.9,29.66,WNW,295,21.0,21.0,93,0.00,,---,0.00,338.00,VWS V14.01,2013-02-21 18:26:00,
2013-02-21 12:30:00,20.6,18.9,29.66,SW,217,14.0,21.0,93,0.00,,---,0.00,326.00,VWS V14.01,2013-02-21 18:30:00,
2013-02-21 12:31:00,20.6,18.9,29.66,West,277,19.0,20.0,93,0.00,,---,0.00,326.00,VWS V14.01,2013-02-21 18:31:00,
2013-02-21 12:35:00,20.6,18.9,29.66,WSW,257,16.0,20.0,93,0.00,,---,0.00,333.00,VWS V14.01,2013-02-21 18:35:00,
2013-02-21 12:37:00,20.6,18.9,29.66,West,271,13.0,20.0,93,0.00,,---,0.00,331.00,VWS V14.01,2013-02-21 18:37:00,
2013-02-21 12:40:00,20.6,18.9,29.66,NNW,344,17.0,20.0,93,0.00,,---,0.00,340.00,VWS V14.01,2013-02-21 18:40:00,
2013-02-21 12:42:00,20.6,18.9,29.66,North,0,12.0,20.0,93,0.00,,---,0.00,338.00,VWS V14.01,2013-02-21 18:42:00,
2013-02-21 12:45:00,20.8,19.1,29.66,North,0,8.0,20.0,93,0.00,,---,0.00,329.00,VWS V14.01,2013-02-21 18:45:00,
2013-02-21 12:47:00,20.8,19.1,29.66,ENE,66,17.0,17.0,93,0.00,,---,0.00,317.00,VWS V14.01,2013-02-21 18:47:00,
2013-02-21 12:50:00,20.8,19.1,29.66,North,0,19.0,22.0,93,0.00,,---,0.00,318.00,VWS V14.01,2013-02-21 18:50:00,
2013-02-21 12:52:00,20.8,19.1,29.66,SSW,193,13.0,19.0,93,0.00,,---,0.00,311.00,VWS V14.01,2013-02-21 18:52:00,
2013-02-21 12:55:00,20.8,19.1,29.66,WSW,240,16.0,19.0,93,0.00,,---,0.00,303.00,VWS V14.01,2013-02-21 18:55:00,
2013-02-21 12:57:00,20.8,19.1,29.66,NE,35,17.0,20.0,93,0.00,,---,0.00,285.00,VWS V14.01,2013-02-21 18:57:00,
2013-02-21 13:00:00,20.8,19.1,29.66,North,353,12.0,20.0,93,0.00,,---,0.00,285.00,VWS V14.01,2013-02-21 19:00:00,
2013-02-21 13:02:00,20.8,19.1,29.66,North,357,13.0,19.0,93,0.00,,---,0.00,266.00,VWS V14.01,2013-02-21 19:02:00,
2013-02-21 13:05:00,20.8,19.1,29.66,ENE,68,15.0,19.0,93,0.00,,---,0.00,266.00,VWS V14.01,2013-02-21 19:05:00,
2013-02-21 13:07:00,20.8,19.1,29.66,ENE,71,11.0,17.0,93,0.00,,---,0.00,252.00,VWS V14.01,2013-02-21 19:07:00,
2013-02-21 13:10:00,20.8,19.1,29.66,North,359,12.0,17.0,93,0.00,,---,0.00,246.00,VWS V14.01,2013-02-21 19:10:00,
2013-02-21 13:12:00,20.8,19.1,29.66,ENE,61,9.0,17.0,93,0.00,,---,0.00,213.00,VWS V14.01,2013-02-21 19:12:00,
2013-02-21 13:15:00,20.8,19.1,29.66,ENE,72,12.0,17.0,93,0.00,,---,0.00,206.00,VWS V14.01,2013-02-21 19:15:00,
2013-02-21 13:17:00,20.8,19.1,29.66,North,357,10.0,15.0,93,0.00,,---,0.00,216.00,VWS V14.01,2013-02-21 19:17:00,
2013-02-21 13:20:00,20.8,19.1,29.66,NE,48,13.0,15.0,93,0.00,,---,0.00,227.00,VWS V14.01,2013-02-21 19:20:00,
2013-02-21 13:23:00,20.8,19.1,29.66,NNW,339,11.0,14.0,93,0.00,,---,0.00,204.00,VWS V14.01,2013-02-21 19:23:00,
2013-02-21 13:25:00,20.8,19.1,29.66,SSE,150,11.0,16.0,93,0.00,,---,0.00,206.00,VWS V14.01,2013-02-21 19:25:00,
2013-02-21 13:28:00,20.8,19.1,29.66,NNW,330,11.0,14.0,93,0.00,,---,0.00,197.00,VWS V14.01,2013-02-21 19:28:00,
2013-02-21 13:30:00,20.8,19.1,29.67,North,353,10.0,14.0,93,0.00,,---,0.00,195.00,VWS V14.01,2013-02-21 19:30:00,
2013-02-21 13:33:00,21.0,19.3,29.67,SSW,209,17.0,17.0,93,0.00,,---,0.00,183.00,VWS V14.01,2013-02-21 19:33:00,
2013-02-21 13:35:00,20.8,19.1,29.67,WNW,302,11.0,17.0,93,0.00,,---,0.00,179.00,VWS V14.01,2013-02-21 19:35:00,
2013-02-21 13:38:00,20.8,19.1,29.67,NE,40,11.0,14.0,93,0.00,,---,0.00,187.00,VWS V14.01,2013-02-21 19:38:00,
2013-02-21 13:40:00,20.8,19.1,29.67,East,79,12.0,16.0,93,0.00,,---,0.00,190.00,VWS V14.01,2013-02-21 19:40:00,
2013-02-21 13:43:00,20.6,18.9,29.67,NNE,32,11.0,16.0,93,0.00,,---,0.00,201.00,VWS V14.01,2013-02-21 19:43:00,
2013-02-21 13:45:00,20.6,18.9,29.66,NE,45,11.0,16.0,93,0.00,,---,0.00,201.00,VWS V14.01,2013-02-21 19:45:00,
2013-02-21 13:48:00,20.6,18.9,29.66,ENE,59,10.0,13.0,93,0.00,,---,0.00,227.00,VWS V14.01,2013-02-21 19:48:00,
2013-02-21 13:50:00,20.6,18.9,29.66,North,0,13.0,14.0,93,0.00,,---,0.00,227.00,VWS V14.01,2013-02-21 19:50:00,
2013-02-21 13:53:00,20.8,19.1,29.66,NE,48,9.0,14.0,93,0.00,,---,0.00,223.00,VWS V14.01,2013-02-21 19:53:00,
2013-02-21 13:55:00,20.8,19.1,29.66,NE,34,8.0,14.0,93,0.00,,---,0.00,232.00,VWS V14.01,2013-02-21 19:55:00,
2013-02-21 13:58:00,21.0,19.5,29.65,NW,304,8.0,13.0,94,0.00,,---,0.00,262.00,VWS V14.01,2013-02-21 19:58:00,
2013-02-21 14:00:00,21.0,19.5,29.65,East,95,13.0,14.0,94,0.00,,---,0.00,262.00,VWS V14.01,2013-02-21 20:00:00,
2013-02-21 14:03:00,21.1,19.6,29.65,North,359,12.0,17.0,94,0.00,,---,0.00,289.00,VWS V14.01,2013-02-21 20:03:00,
2013-02-21 14:05:00,21.1,19.6,29.65,NE,40,13.0,17.0,94,0.00,,---,0.00,292.00,VWS V14.01,2013-02-21 20:05:00,
2013-02-21 14:08:00,21.1,19.4,29.65,ENE,61,11.0,13.0,93,0.00,,---,0.00,225.00,VWS V14.01,2013-02-21 20:08:00,
2013-02-21 14:10:00,21.1,19.4,29.65,SSE,164,12.0,13.0,93,0.00,,---,0.00,225.00,VWS V14.01,2013-02-21 20:10:00,
2013-02-21 14:13:00,21.1,19.4,29.65,WNW,295,10.0,14.0,93,0.00,,---,0.00,202.00,VWS V14.01,2013-02-21 20:13:00,
2013-02-21 14:15:00,21.1,19.4,29.65,WSW,241,10.0,14.0,93,0.00,,---,0.00,202.00,VWS V14.01,2013-02-21 20:15:00,
2013-02-21 14:19:00,21.3,19.6,29.65,SSE,168,12.0,14.0,93,0.00,,---,0.00,211.00,VWS V14.01,2013-02-21 20:19:00,
2013-02-21 14:20:00,21.3,19.6,29.65,WNW,287,10.0,14.0,93,0.00,,---,0.00,211.00,VWS V14.01,2013-02-21 20:20:00,
2013-02-21 14:24:00,21.3,19.6,29.65,SSE,160,12.0,12.0,93,0.00,,---,0.00,208.00,VWS V14.01,2013-02-21 20:24:00,
2013-02-21 14:25:00,21.3,19.6,29.65,NE,55,10.0,12.0,93,0.00,,---,0.00,208.00,VWS V14.01,2013-02-21 20:25:00,
2013-02-21 14:29:00,21.3,19.6,29.64,North,357,8.0,14.0,93,0.00,,---,0.00,236.00,VWS V14.01,2013-02-21 20:29:00,
2013-02-21 14:30:00,21.3,19.6,29.64,North,357,8.0,14.0,93,0.00,,---,0.00,236.00,VWS V14.01,2013-02-21 20:30:00,
2013-02-21 14:34:00,21.1,19.4,29.64,SE,136,14.0,17.0,93,0.00,,---,0.00,218.00,VWS V14.01,2013-02-21 20:34:00,
2013-02-21 14:35:00,21.1,19.4,29.64,SE,136,14.0,17.0,93,0.00,,---,0.00,218.00,VWS V14.01,2013-02-21 20:35:00,
2013-02-21 14:39:00,21.1,19.6,29.64,NE,41,8.0,19.0,94,0.00,,---,0.00,206.00,VWS V14.01,2013-02-21 20:39:00,
2013-02-21 14:40:00,21.1,19.6,29.64,NE,41,8.0,19.0,94,0.00,,---,0.00,206.00,VWS V14.01,2013-02-21 20:40:00,
2013-02-21 14:44:00,21.1,19.6,29.63,ENE,68,12.0,12.0,94,0.00,,---,0.00,243.00,VWS V14.01,2013-02-21 20:44:00,
2013-02-21 14:45:00,21.1,19.6,29.63,North,0,12.0,16.0,94,0.00,,---,0.00,243.00,VWS V14.01,2013-02-21 20:45:00,
2013-02-21 14:49:00,21.1,19.6,29.63,SSE,154,8.0,12.0,94,0.00,,---,0.00,259.00,VWS V14.01,2013-02-21 20:49:00,
2013-02-21 14:50:00,21.1,19.6,29.63,ENE,76,12.0,16.0,94,0.00,,---,0.00,253.00,VWS V14.01,2013-02-21 20:50:00,
2013-02-21 14:54:00,21.3,19.9,29.63,ENE,69,7.0,9.0,94,0.00,,---,0.00,310.00,VWS V14.01,2013-02-21 20:54:00,
2013-02-21 14:55:00,21.4,19.9,29.63,NE,34,9.0,12.0,94,0.00,,---,0.00,306.00,VWS V14.01,2013-02-21 20:55:00,
2013-02-21 14:59:00,21.6,20.1,29.63,SW,219,11.0,11.0,94,0.00,,---,0.00,322.00,VWS V14.01,2013-02-21 20:59:00,
2013-02-21 15:00:00,21.6,20.1,29.63,NNE,27,9.0,14.0,94,0.00,,---,0.00,326.00,VWS V14.01,2013-02-21 21:00:00,
2013-02-21 15:04:00,21.6,20.1,29.63,NE,37,8.0,11.0,94,0.00,,---,0.00,266.00,VWS V14.01,2013-02-21 21:04:00,
2013-02-21 15:05:00,21.6,20.1,29.63,NE,55,11.0,15.0,94,0.00,,---,0.00,273.00,VWS V14.01,2013-02-21 21:05:00,
2013-02-21 15:10:00,21.6,19.9,29.63,NE,45,10.0,12.0,93,0.00,,---,0.00,197.00,VWS V14.01,2013-02-21 21:10:00,
2013-02-21 15:15:00,21.6,19.9,29.63,NE,41,9.0,10.0,93,0.00,,---,0.00,171.00,VWS V14.01,2013-02-21 21:15:00,
2013-02-21 15:20:00,21.6,19.9,29.63,NE,44,8.0,11.0,93,0.00,,---,0.00,144.00,VWS V14.01,2013-02-21 21:20:00,
2013-02-21 15:25:00,21.6,19.9,29.63,NNW,336,7.0,12.0,93,0.00,,---,0.00,132.00,VWS V14.01,2013-02-21 21:25:00,
2013-02-21 15:30:00,21.4,19.7,29.62,North,0,8.0,11.0,93,0.00,,---,0.00,148.00,VWS V14.01,2013-02-21 21:30:00,
2013-02-21 15:35:00,21.4,19.7,29.62,West,261,6.0,10.0,93,0.00,,---,0.00,178.00,VWS V14.01,2013-02-21 21:35:00,
2013-02-21 15:40:00,21.4,19.9,29.62,NNE,23,10.0,12.0,94,0.00,,---,0.00,199.00,VWS V14.01,2013-02-21 21:40:00,
2013-02-21 15:45:00,21.6,20.1,29.62,WSW,254,12.0,12.0,94,0.00,,---,0.00,202.00,VWS V14.01,2013-02-21 21:45:00,
2013-02-21 15:50:00,21.6,20.1,29.62,South,181,10.0,13.0,94,0.00,,---,0.00,276.00,VWS V14.01,2013-02-21 21:50:00,
2013-02-21 15:55:00,21.6,20.1,29.62,NE,42,11.0,13.0,94,0.00,,---,0.00,306.00,VWS V14.01,2013-02-21 21:55:00,
2013-02-21 15:56:00,21.6,20.1,29.62,SSW,203,9.0,11.0,94,0.00,,---,0.00,310.00,VWS V14.01,2013-02-21 21:56:00,
2013-02-21 16:00:00,21.8,20.3,29.61,ENE,73,11.0,12.0,94,0.00,,---,0.00,285.00,VWS V14.01,2013-02-21 22:00:00,
2013-02-21 16:01:00,21.8,20.3,29.61,SSW,206,10.0,12.0,94,0.00,,---,0.00,285.00,VWS V14.01,2013-02-21 22:01:00,
2013-02-21 16:05:00,21.8,20.3,29.61,NE,34,11.0,16.0,94,0.00,,---,0.00,239.00,VWS V14.01,2013-02-21 22:05:00,
2013-02-21 16:06:00,21.8,20.3,29.61,NNW,328,8.0,12.0,94,0.00,,---,0.00,195.00,VWS V14.01,2013-02-21 22:06:00,
2013-02-21 16:10:00,21.8,20.3,29.61,NNE,28,9.0,12.0,94,0.00,,---,0.00,188.00,VWS V14.01,2013-02-21 22:10:00,
2013-02-21 16:11:00,21.8,20.3,29.61,NNE,20,8.0,10.0,94,0.00,,---,0.00,187.00,VWS V14.01,2013-02-21 22:11:00,
2013-02-21 16:15:00,21.9,20.4,29.61,NNE,32,10.0,13.0,94,0.00,,---,0.00,195.00,VWS V14.01,2013-02-21 22:15:00,
2013-02-21 16:16:00,21.9,20.4,29.61,North,354,10.0,13.0,94,0.00,,---,0.00,206.00,VWS V14.01,2013-02-21 22:16:00,
2013-02-21 16:20:00,21.9,20.4,29.61,North,357,10.0,13.0,94,0.00,,---,0.00,218.00,VWS V14.01,2013-02-21 22:20:00,
2013-02-21 16:21:00,21.9,20.4,29.61,WNW,289,6.0,12.0,94,0.00,,---,0.00,230.00,VWS V14.01,2013-02-21 22:21:00,
2013-02-21 16:25:00,21.9,20.4,29.61,NE,48,7.0,12.0,94,0.00,,---,0.00,253.00,VWS V14.01,2013-02-21 22:25:00,
2013-02-21 16:26:00,21.9,20.4,29.61,NNE,20,9.0,13.0,94,0.00,,---,0.00,296.00,VWS V14.01,2013-02-21 22:26:00,
2013-02-21 16:30:00,22.1,20.6,29.61,NE,49,11.0,13.0,94,0.00,,---,0.00,311.00,VWS V14.01,2013-02-21 22:30:00,
2013-02-21 16:31:00,22.1,20.6,29.61,NNW,344,10.0,12.0,94,0.00,,---,0.00,317.00,VWS V14.01,2013-02-21 22:31:00,
2013-02-21 16:35:00,22.2,20.7,29.61,North,0,7.0,12.0,94,0.00,,---,0.00,283.00,VWS V14.01,2013-02-21 22:35:00,
2013-02-21 16:36:00,22.2,20.7,29.61,NW,313,8.0,8.0,94,0.00,,---,0.00,223.00,VWS V14.01,2013-02-21 22:36:00,
2013-02-21 16:40:00,22.2,20.7,29.61,ESE,121,11.0,12.0,94,0.00,,---,0.00,181.00,VWS V14.01,2013-02-21 22:40:00,
2013-02-21 16:41:00,22.2,20.7,29.61,NE,37,8.0,12.0,94,0.00,,---,0.00,167.00,VWS V14.01,2013-02-21 22:41:00,
2013-02-21 16:45:00,22.2,20.7,29.61,North,0,8.0,12.0,94,0.00,,---,0.00,143.00,VWS V14.01,2013-02-21 22:45:00,
2013-02-21 16:46:00,22.1,20.6,29.61,NNE,25,10.0,12.0,94,0.00,,---,0.00,109.00,VWS V14.01,2013-02-21 22:46:00,
2013-02-21 16:50:00,22.1,20.6,29.61,North,0,7.0,12.0,94,0.00,,---,0.00,97.00,VWS V14.01,2013-02-21 22:50:00,
2013-02-21 16:52:00,22.1,20.6,29.61,NE,42,8.0,10.0,94,0.00,,---,0.00,91.00,VWS V14.01,2013-02-21 22:52:00,
2013-02-21 16:55:00,22.1,20.6,29.61,North,0,6.0,11.0,94,0.00,,---,0.00,84.00,VWS V14.01,2013-02-21 22:55:00,
2013-02-21 16:57:00,21.9,20.4,29.61,ENE,59,8.0,11.0,94,0.00,,---,0.00,84.00,VWS V14.01,2013-02-21 22:57:00,
2013-02-21 17:00:00,21.9,20.4,29.62,South,191,6.0,12.0,94,0.00,,---,0.00,88.00,VWS V14.01,2013-02-21 23:00:00,
2013-02-21 17:02:00,21.9,20.4,29.62,South,191,6.0,8.0,94,0.00,,---,0.00,91.00,VWS V14.01,2013-02-21 23:02:00,
2013-02-21 17:05:00,21.9,20.4,29.62,NNW,343,5.0,8.0,94,0.00,,---,0.00,90.00,VWS V14.01,2013-02-21 23:05:00,
2013-02-21 17:07:00,21.9,20.4,29.62,NNW,344,6.0,8.0,94,0.00,,---,0.00,62.00,VWS V14.01,2013-02-21 23:07:00,
2013-02-21 17:10:00,22.1,20.6,29.62,NW,325,5.0,8.0,94,0.00,,---,0.00,58.00,VWS V14.01,2013-02-21 23:10:00,
2013-02-21 17:12:00,22.1,20.6,29.62,NNW,344,8.0,9.0,94,0.00,,---,0.00,53.00,VWS V14.01,2013-02-21 23:12:00,
2013-02-21 17:15:00,22.1,20.6,29.63,North,353,6.0,9.0,94,0.00,,---,0.00,49.00,VWS V14.01,2013-02-21 23:15:00,
2013-02-21 17:17:00,22.1,20.6,29.63,NNW,339,4.0,7.0,94,0.00,,---,0.00,44.00,VWS V14.01,2013-02-21 23:17:00,
2013-02-21 17:20:00,22.1,20.6,29.63,NNW,335,3.0,8.0,94,0.00,,---,0.00,42.00,VWS V14.01,2013-02-21 23:20:00,
2013-02-21 17:22:00,22.1,20.6,29.63,NNW,332,6.0,8.0,94,0.00,,---,0.00,39.00,VWS V14.01,2013-02-21 23:22:00,
2013-02-21 17:25:00,22.1,20.6,29.63,North,0,3.0,8.0,94,0.00,,---,0.00,37.00,VWS V14.01,2013-02-21 23:25:00,
2013-02-21 17:27:00,22.1,20.6,29.63,WNW,284,7.0,9.0,94,0.00,,---,0.00,28.00,VWS V14.01,2013-02-21 23:27:00,
2013-02-21 17:30:00,22.1,20.6,29.64,NNW,339,5.0,9.0,94,0.00,,---,0.00,28.00,VWS V14.01,2013-02-21 23:30:00,
2013-02-21 17:32:00,22.1,20.6,29.64,NW,306,6.0,8.0,94,0.00,,---,0.00,32.00,VWS V14.01,2013-02-21 23:32:00,
2013-02-21 17:35:00,22.1,20.6,29.64,North,359,5.0,8.0,94,0.00,,---,0.00,32.00,VWS V14.01,2013-02-21 23:35:00,
2013-02-21 17:37:00,21.9,20.4,29.64,NNW,346,8.0,9.0,94,0.00,,---,0.00,42.00,VWS V14.01,2013-02-21 23:37:00,
2013-02-21 17:40:00,21.9,20.4,29.64,NW,306,8.0,10.0,94,0.00,,---,0.00,42.00,VWS V14.01,2013-02-21 23:40:00,
2013-02-21 17:42:00,21.9,20.4,29.64,North,0,5.0,10.0,94,0.00,,---,0.00,67.00,VWS V14.01,2013-02-21 23:42:00,
2013-02-21 17:45:00,21.9,20.4,29.65,NW,322,9.0,11.0,94,0.00,,---,0.00,63.00,VWS V14.01,2013-02-21 23:45:00,
2013-02-21 17:48:00,21.9,20.4,29.65,NNW,342,7.0,11.0,94,0.00,,---,0.00,56.00,VWS V14.01,2013-02-21 23:48:00,
2013-02-21 17:50:00,21.8,20.3,29.65,NNW,346,7.0,11.0,94,0.00,,---,0.00,55.00,VWS V14.01,2013-02-21 23:50:00,
2013-02-21 17:53:00,21.8,20.3,29.65,North,0,8.0,10.0,94,0.00,,---,0.00,56.00,VWS V14.01,2013-02-21 23:53:00,
2013-02-21 17:55:00,21.8,20.3,29.65,NNW,329,7.0,10.0,94,0.00,,---,0.00,58.00,VWS V14.01,2013-02-21 23:55:00,
2013-02-21 17:58:00,21.8,20.3,29.65,North,356,7.0,10.0,94,0.00,,---,0.00,53.00,VWS V14.01,2013-02-21 23:58:00,
2013-02-21 18:00:00,21.8,20.3,29.65,North,349,10.0,10.0,94,0.00,,---,0.00,51.00,VWS V14.01,2013-02-22 00:00:00,
2013-02-21 18:03:00,21.8,20.3,29.65,NW,320,10.0,10.0,94,0.00,,---,0.00,39.00,VWS V14.01,2013-02-22 00:03:00,
2013-02-21 18:05:00,21.8,20.3,29.65,NNW,332,6.0,10.0,94,0.00,,---,0.00,35.00,VWS V14.01,2013-02-22 00:05:00,
2013-02-21 18:08:00,21.8,20.3,29.65,NW,320,6.0,10.0,94,0.00,,---,0.00,12.00,VWS V14.01,2013-02-22 00:08:00,
2013-02-21 18:10:00,21.8,20.3,29.65,NW,308,6.0,10.0,94,0.00,,---,0.00,12.00,VWS V14.01,2013-02-22 00:10:00,
2013-02-21 18:13:00,21.6,20.1,29.66,WNW,295,5.0,11.0,94,0.00,,---,0.00,7.00,VWS V14.01,2013-02-22 00:13:00,
2013-02-21 18:15:00,21.6,20.1,29.66,NNW,343,6.0,11.0,94,0.00,,---,0.00,7.00,VWS V14.01,2013-02-22 00:15:00,
2013-02-21 18:18:00,21.6,20.1,29.66,NNW,329,7.0,10.0,94,0.00,,---,0.00,0.00,VWS V14.01,2013-02-22 00:18:00,
2013-02-21 18:20:00,21.6,20.1,29.66,NW,315,3.0,10.0,94,0.00,,---,0.00,0.00,VWS V14.01,2013-02-22 00:20:00,
2013-02-21 18:23:00,21.6,20.1,29.66,North,0,11.0,12.0,94,0.00,,---,0.00,0.00,VWS V14.01,2013-02-22 00:23:00,
2013-02-21 18:25:00,21.4,19.9,29.66,NW,306,8.0,12.0,94,0.00,,---,0.00,0.00,VWS V14.01,2013-02-22 00:25:00,
2013-02-21 18:28:00,21.4,19.9,29.66,WNW,299,7.0,12.0,94,0.00,,---,0.00,0.00,VWS V14.01,2013-02-22 00:28:00,
2013-02-21 18:30:00,21.4,19.9,29.66,North,359,7.0,12.0,94,0.00,,---,0.00,0.00,VWS V14.01,2013-02-22 00:30:00,
2013-02-21 18:33:00,21.3,19.9,29.66,NW,305,6.0,11.0,94,0.00,,---,0.00,0.00,VWS V14.01,2013-02-22 00:33:00,
2013-02-21 18:35:00,21.3,19.8,29.66,NNW,346,7.0,11.0,94,0.00,,---,0.00,0.00,VWS V14.01,2013-02-22 00:35:00,
2013-02-21 18:38:00,21.1,19.6,29.66,WNW,302,10.0,11.0,94,0.00,,---,0.00,0.00,VWS V14.01,2013-02-22 00:38:00,
2013-02-21 18:40:00,21.3,19.8,29.66,North,356,7.0,11.0,94,0.00,,---,0.00,0.00,VWS V14.01,2013-02-22 00:40:00,
2013-02-21 18:44:00,21.1,19.6,29.67,NW,306,7.0,10.0,94,0.00,,---,0.00,0.00,VWS V14.01,2013-02-22 00:44:00,
2013-02-21 18:45:00,21.1,19.6,29.67,NW,308,6.0,10.0,94,0.00,,---,0.00,0.00,VWS V14.01,2013-02-22 00:45:00,
2013-02-21 18:49:00,21.1,19.6,29.67,North,0,8.0,11.0,94,0.00,,---,0.00,5.00,VWS V14.01,2013-02-22 00:49:00,
2013-02-21 18:50:00,21.1,19.6,29.67,NW,315,6.0,11.0,94,0.00,,---,0.00,5.00,VWS V14.01,2013-02-22 00:50:00,
2013-02-21 18:54:00,21.0,19.5,29.67,NNW,328,7.0,12.0,94,0.00,,---,0.00,0.00,VWS V14.01,2013-02-22 00:54:00,
2013-02-21 18:55:00,21.0,19.5,29.67,NNW,340,6.0,12.0,94,0.00,,---,0.00,0.00,VWS V14.01,2013-02-22 00:55:00,
2013-02-21 18:59:00,21.0,19.5,29.67,NW,320,8.0,12.0,94,0.00,,---,0.00,0.00,VWS V14.01,2013-02-22 00:59:00,
2013-02-21 19:00:00,21.1,19.6,29.67,North,0,6.0,12.0,94,0.00,,---,0.00,0.00,VWS V14.01,2013-02-22 01:00:00,
2013-02-21 19:04:00,21.1,19.6,29.67,NNW,335,6.0,13.0,94,0.00,,---,0.00,7.00,VWS V14.01,2013-02-22 01:04:00,
2013-02-21 19:05:00,21.1,19.6,29.67,NNW,337,6.0,13.0,94,0.00,,---,0.00,7.00,VWS V14.01,2013-02-22 01:05:00,
2013-02-21 19:09:00,21.1,19.6,29.67,WNW,284,7.0,11.0,94,0.00,,---,0.00,0.00,VWS V14.01,2013-02-22 01:09:00,
2013-02-21 19:10:00,21.1,19.6,29.67,WNW,296,5.0,11.0,94,0.00,,---,0.00,0.00,VWS V14.01,2013-02-22 01:10:00,
2013-02-21 19:14:00,21.0,19.5,29.67,West,280,9.0,10.0,94,0.00,,---,0.00,0.00,VWS V14.01,2013-02-22 01:14:00,
2013-02-21 19:15:00,20.3,18.6,29.68,NW,325,10.0,11.0,93,0.00,,---,0.00,0.00,VWS V14.01,2013-02-22 01:15:00,
2013-02-21 19:19:00,21.1,19.6,29.67,NW,304,6.0,7.0,94,0.00,,---,0.00,0.00,VWS V14.01,2013-02-22 01:19:00,
2013-02-21 19:20:00,21.1,19.6,29.67,NW,306,7.0,10.0,94,0.00,,---,0.00,0.00,VWS V14.01,2013-02-22 01:20:00,
2013-02-21 19:24:00,21.0,19.5,29.67,NNW,340,11.0,11.0,94,0.00,,---,0.00,0.00,VWS V14.01,2013-02-22 01:24:00,
2013-02-21 19:25:00,21.0,19.5,29.67,NNW,339,6.0,11.0,94,0.00,,---,0.00,0.00,VWS V14.01,2013-02-22 01:25:00,
2013-02-21 19:29:00,21.0,19.5,29.67,North,0,8.0,10.0,94,0.00,,---,0.00,0.00,VWS V14.01,2013-02-22 01:29:00,
2013-02-21 19:30:00,21.0,19.5,29.67,NW,319,7.0,11.0,94,0.00,,---,0.00,0.00,VWS V14.01,2013-02-22 01:30:00,
2013-02-21 19:34:00,21.0,19.5,29.67,NW,309,6.0,10.0,94,0.00,,---,0.00,0.00,VWS V14.01,2013-02-22 01:34:00,
2013-02-21 19:35:00,21.0,19.5,29.67,North,357,10.0,11.0,94,0.00,,---,0.00,0.00,VWS V14.01,2013-02-22 01:35:00,
2013-02-21 19:39:00,21.0,19.5,29.67,North,349,6.0,8.0,94,0.00,,---,0.00,0.00,VWS V14.01,2013-02-22 01:39:00,
2013-02-21 19:40:00,21.0,19.5,29.67,NW,311,6.0,10.0,94,0.00,,---,0.00,0.00,VWS V14.01,2013-02-22 01:40:00,
2013-02-21 19:44:00,20.8,19.4,29.67,WNW,298,5.0,6.0,94,0.00,,---,0.00,5.00,VWS V14.01,2013-02-22 01:44:00,
2013-02-21 19:45:00,20.8,19.4,29.67,NW,315,6.0,11.0,94,0.00,,---,0.00,5.00,VWS V14.01,2013-02-22 01:45:00,
2013-02-21 19:50:00,20.8,19.4,29.67,WNW,299,11.0,11.0,94,0.00,,---,0.00,0.00,VWS V14.01,2013-02-22 01:50:00,
2013-02-21 19:55:00,20.6,19.1,29.67,NW,318,7.0,9.0,94,0.00,,---,0.00,5.00,VWS V14.01,2013-02-22 01:55:00,
2013-02-21 20:00:00,20.6,19.1,29.67,WNW,299,5.0,10.0,94,0.00,,---,0.00,5.00,VWS V14.01,2013-02-22 02:00:00,
2013-02-21 20:05:00,20.5,19.0,29.67,WNW,282,6.0,10.0,94,0.00,,---,0.00,5.00,VWS V14.01,2013-02-22 02:05:00,
2013-02-21 20:10:00,20.5,18.8,29.67,WNW,295,9.0,10.0,93,0.00,,---,0.00,0.00,VWS V14.01,2013-02-22 02:10:00,
2013-02-21 20:15:00,20.3,18.6,29.68,WNW,284,5.0,10.0,93,0.00,,---,0.00,0.00,VWS V14.01,2013-02-22 02:15:00,
2013-02-21 20:20:00,20.3,18.6,29.68,NW,309,8.0,10.0,93,0.00,,---,0.00,0.00,VWS V14.01,2013-02-22 02:20:00,
2013-02-21 20:25:00,20.2,18.5,29.68,WNW,294,10.0,10.0,93,0.00,,---,0.00,0.00,VWS V14.01,2013-02-22 02:25:00,
2013-02-21 20:30:00,20.0,18.3,29.69,WNW,292,11.0,12.0,93,0.00,,---,0.00,0.00,VWS V14.01,2013-02-22 02:30:00,
2013-02-21 20:35:00,20.0,18.3,29.69,NW,304,10.0,11.0,93,0.00,,---,0.00,0.00,VWS V14.01,2013-02-22 02:35:00,
2013-02-21 20:40:00,19.9,18.5,29.69,North,0,8.0,11.0,94,0.00,,---,0.00,5.00,VWS V14.01,2013-02-22 02:40:00,
2013-02-21 20:45:00,19.7,18.0,29.69,WNW,292,6.0,10.0,93,0.00,,---,0.00,0.00,VWS V14.01,2013-02-22 02:45:00,
2013-02-21 20:50:00,19.4,17.7,29.69,WNW,288,8.0,10.0,93,0.00,,---,0.00,7.00,VWS V14.01,2013-02-22 02:50:00,
2013-02-21 20:55:00,19.2,17.5,29.69,WNW,294,10.0,11.0,93,0.00,,---,0.00,5.00,VWS V14.01,2013-02-22 02:55:00,
2013-02-21 20:56:00,19.1,17.4,29.69,WNW,291,8.0,10.0,93,0.00,,---,0.00,5.00,VWS V14.01,2013-02-22 02:56:00,
2013-02-21 21:00:00,18.9,17.2,29.70,WNW,299,8.0,11.0,93,0.00,,---,0.00,7.00,VWS V14.01,2013-02-22 03:00:00,
2013-02-21 21:01:00,18.9,17.2,29.70,NNW,333,11.0,11.0,93,0.00,,---,0.00,5.00,VWS V14.01,2013-02-22 03:01:00,
2013-02-21 21:05:00,18.9,17.2,29.70,WNW,296,7.0,11.0,93,0.00,,---,0.00,5.00,VWS V14.01,2013-02-22 03:05:00,
2013-02-21 21:06:00,18.8,17.1,29.70,WNW,299,8.0,8.0,93,0.00,,---,0.00,0.00,VWS V14.01,2013-02-22 03:06:00,
2013-02-21 21:10:00,18.8,17.1,29.70,WNW,291,10.0,10.0,93,0.00,,---,0.00,0.00,VWS V14.01,2013-02-22 03:10:00,
2013-02-21 21:11:00,18.8,17.1,29.70,NW,306,5.0,10.0,93,0.00,,---,0.00,0.00,VWS V14.01,2013-02-22 03:11:00,
2013-02-21 21:15:00,18.6,16.9,29.70,NW,304,6.0,10.0,93,0.00,,---,0.00,0.00,VWS V14.01,2013-02-22 03:15:00,
2013-02-21 21:16:00,18.6,16.9,29.70,WNW,299,11.0,11.0,93,0.00,,---,0.00,0.00,VWS V14.01,2013-02-22 03:16:00,
2013-02-21 21:20:00,18.6,16.9,29.70,WNW,291,6.0,11.0,93,0.00,,---,0.00,0.00,VWS V14.01,2013-02-22 03:20:00,
2013-02-21 21:21:00,18.6,16.9,29.70,WNW,284,7.0,10.0,93,0.00,,---,0.00,0.00,VWS V14.01,2013-02-22 03:21:00,
2013-02-21 21:25:00,18.6,16.7,29.70,WNW,294,6.0,10.0,92,0.00,,---,0.00,0.00,VWS V14.01,2013-02-22 03:25:00,
2013-02-21 21:26:00,18.4,16.5,29.70,WNW,291,7.0,10.0,92,0.00,,---,0.00,0.00,VWS V14.01,2013-02-22 03:26:00,
2013-02-21 21:30:00,18.4,16.5,29.71,WNW,302,7.0,10.0,92,0.00,,---,0.00,0.00,VWS V14.01,2013-02-22 03:30:00,
2013-02-21 21:31:00,18.3,16.4,29.71,WNW,296,10.0,10.0,92,0.00,,---,0.00,0.00,VWS V14.01,2013-02-22 03:31:00,
2013-02-21 21:35:00,18.3,16.4,29.71,WNW,292,6.0,11.0,92,0.00,,---,0.00,0.00,VWS V14.01,2013-02-22 03:35:00,
2013-02-21 21:37:00,18.1,16.2,29.71,West,272,8.0,11.0,92,0.00,,---,0.00,0.00,VWS V14.01,2013-02-22 03:37:00,
2013-02-21 21:40:00,18.1,16.2,29.71,WNW,301,8.0,11.0,92,0.00,,---,0.00,0.00,VWS V14.01,2013-02-22 03:40:00,
2013-02-21 21:42:00,18.1,16.4,29.71,WNW,294,9.0,10.0,93,0.00,,---,0.00,7.00,VWS V14.01,2013-02-22 03:42:00,
2013-02-21 21:45:00,18.1,16.4,29.71,WNW,294,7.0,10.0,93,0.00,,---,0.00,7.00,VWS V14.01,2013-02-22 03:45:00,
2013-02-21 21:47:00,18.1,16.4,29.71,WNW,282,6.0,10.0,93,0.00,,---,0.00,7.00,VWS V14.01,2013-02-22 03:47:00,
2013-02-21 21:50:00,18.1,16.4,29.71,West,271,7.0,10.0,93,0.00,,---,0.00,7.00,VWS V14.01,2013-02-22 03:50:00,
2013-02-21 21:52:00,18.1,16.4,29.71,West,278,7.0,9.0,93,0.00,,---,0.00,7.00,VWS V14.01,2013-02-22 03:52:00,
2013-02-21 21:55:00,18.1,16.4,29.71,North,356,7.0,9.0,93,0.00,,---,0.00,7.00,VWS V14.01,2013-02-22 03:55:00,
2013-02-21 21:57:00,18.3,16.6,29.71,NW,311,7.0,8.0,93,0.00,,---,0.00,7.00,VWS V14.01,2013-02-22 03:57:00,
2013-02-21 22:00:00,18.3,16.6,29.72,NW,318,7.0,8.0,93,0.00,,---,0.00,7.00,VWS V14.01,2013-02-22 04:00:00,
2013-02-21 22:02:00,18.3,16.6,29.72,West,281,9.0,11.0,93,0.00,,---,0.00,7.00,VWS V14.01,2013-02-22 04:02:00,
2013-02-21 22:05:00,18.4,16.7,29.72,WNW,296,12.0,13.0,93,0.00,,---,0.00,7.00,VWS V14.01,2013-02-22 04:05:00,
2013-02-21 22:07:00,18.4,16.7,29.72,WNW,296,10.0,12.0,93,0.00,,---,0.00,0.00,VWS V14.01,2013-02-22 04:07:00,
2013-02-21 22:10:00,18.6,16.9,29.72,WNW,291,6.0,13.0,93,0.00,,---,0.00,0.00,VWS V14.01,2013-02-22 04:10:00,
2013-02-21 22:12:00,18.6,16.9,29.72,WNW,299,12.0,13.0,93,0.00,,---,0.00,0.00,VWS V14.01,2013-02-22 04:12:00,
2013-02-21 22:15:00,18.6,16.9,29.71,WNW,301,11.0,13.0,93,0.00,,---,0.00,0.00,VWS V14.01,2013-02-22 04:15:00,
2013-02-21 22:17:00,18.6,16.9,29.71,WNW,288,12.0,13.0,93,0.00,,---,0.00,0.00,VWS V14.01,2013-02-22 04:17:00,
2013-02-21 22:20:00,18.6,16.9,29.71,NW,305,7.0,13.0,93,0.00,,---,0.00,0.00,VWS V14.01,2013-02-22 04:20:00,
2013-02-21 22:22:00,18.6,16.9,29.71,WNW,299,10.0,13.0,93,0.00,,---,0.00,0.00,VWS V14.01,2013-02-22 04:22:00,
2013-02-21 22:25:00,18.6,16.7,29.71,WNW,292,7.0,13.0,92,0.00,,---,0.00,0.00,VWS V14.01,2013-02-22 04:25:00,
2013-02-21 22:28:00,18.6,16.7,29.71,WNW,296,8.0,12.0,92,0.00,,---,0.00,0.00,VWS V14.01,2013-02-22 04:28:00,
2013-02-21 22:30:00,18.6,16.7,29.72,NW,305,7.0,12.0,92,0.00,,---,0.00,0.00,VWS V14.01,2013-02-22 04:30:00,
2013-02-21 22:33:00,18.4,16.5,29.72,WNW,294,6.0,11.0,92,0.00,,---,0.00,0.00,VWS V14.01,2013-02-22 04:33:00,
2013-02-21 22:35:00,18.4,16.5,29.72,WNW,296,8.0,11.0,92,0.00,,---,0.00,0.00,VWS V14.01,2013-02-22 04:35:00,
2013-02-21 22:38:00,18.6,16.7,29.72,WNW,299,8.0,11.0,92,0.00,,---,0.00,0.00,VWS V14.01,2013-02-22 04:38:00,
2013-02-21 22:40:00,18.4,16.5,29.72,WNW,296,8.0,11.0,92,0.00,,---,0.00,0.00,VWS V14.01,2013-02-22 04:40:00,
2013-02-21 22:43:00,18.4,16.7,29.73,WNW,295,7.0,11.0,93,0.00,,---,0.00,5.00,VWS V14.01,2013-02-22 04:43:00,
2013-02-21 22:45:00,18.4,16.7,29.73,WNW,294,8.0,11.0,93,0.00,,---,0.00,5.00,VWS V14.01,2013-02-22 04:45:00,
2013-02-21 22:48:00,18.1,16.2,29.73,WNW,299,10.0,10.0,92,0.00,,---,0.00,7.00,VWS V14.01,2013-02-22 04:48:00,
2013-02-21 22:50:00,18.1,16.2,29.73,WNW,282,7.0,10.0,92,0.00,,---,0.00,7.00,VWS V14.01,2013-02-22 04:50:00,
2013-02-21 22:53:00,17.8,15.9,29.73,NW,316,9.0,12.0,92,0.00,,---,0.00,7.00,VWS V14.01,2013-02-22 04:53:00,
2013-02-21 22:55:00,17.8,15.9,29.73,WNW,285,5.0,12.0,92,0.00,,---,0.00,7.00,VWS V14.01,2013-02-22 04:55:00,
2013-02-21 22:58:00,17.7,15.8,29.74,NW,308,5.0,10.0,92,0.00,,---,0.00,7.00,VWS V14.01,2013-02-22 04:58:00,
2013-02-21 23:00:00,17.5,15.6,29.74,WNW,299,6.0,7.0,92,0.00,,---,0.00,7.00,VWS V14.01,2013-02-22 05:00:00,
2013-02-21 23:03:00,17.5,15.6,29.74,WNW,292,6.0,8.0,92,0.00,,---,0.00,7.00,VWS V14.01,2013-02-22 05:03:00,
2013-02-21 23:05:00,17.5,15.6,29.74,WNW,299,7.0,8.0,92,0.00,,---,0.00,7.00,VWS V14.01,2013-02-22 05:05:00,
2013-02-21 23:08:00,17.5,15.6,29.74,WNW,295,6.0,12.0,92,0.00,,---,0.00,7.00,VWS V14.01,2013-02-22 05:08:00,
2013-02-21 23:10:00,17.5,15.6,29.74,WNW,294,10.0,12.0,92,0.00,,---,0.00,7.00,VWS V14.01,2013-02-22 05:10:00,
2013-02-21 23:13:00,17.5,15.6,29.74,NW,305,8.0,11.0,92,0.00,,---,0.00,0.00,VWS V14.01,2013-02-22 05:13:00,
2013-02-21 23:15:00,17.7,15.8,29.74,North,0,11.0,11.0,92,0.00,,---,0.00,0.00,VWS V14.01,2013-02-22 05:15:00,
2013-02-21 23:18:00,17.5,15.6,29.74,WNW,292,11.0,12.0,92,0.00,,---,0.00,0.00,VWS V14.01,2013-02-22 05:18:00,
2013-02-21 23:20:00,17.5,15.6,29.74,WNW,298,10.0,12.0,92,0.00,,---,0.00,0.00,VWS V14.01,2013-02-22 05:20:00,
2013-02-21 23:23:00,17.3,15.4,29.74,WNW,287,7.0,11.0,92,0.00,,---,0.00,0.00,VWS V14.01,2013-02-22 05:23:00,
2013-02-21 23:25:00,17.3,15.4,29.74,WNW,298,9.0,11.0,92,0.00,,---,0.00,0.00,VWS V14.01,2013-02-22 05:25:00,
2013-02-21 23:28:00,17.2,15.0,29.74,WNW,292,7.0,10.0,91,0.00,,---,0.00,0.00,VWS V14.01,2013-02-22 05:28:00,
2013-02-21 23:30:00,17.2,15.0,29.74,West,278,8.0,10.0,91,0.00,,---,0.00,0.00,VWS V14.01,2013-02-22 05:30:00,
2013-02-21 23:33:00,16.9,14.7,29.74,NW,306,7.0,11.0,91,0.00,,---,0.00,0.00,VWS V14.01,2013-02-22 05:33:00,
2013-02-21 23:35:00,15.6,13.4,29.78,WNW,282,7.0,11.0,91,0.00,,---,0.00,7.00,VWS V14.01,2013-02-22 05:35:00,
2013-02-21 23:39:00,16.5,14.3,29.74,West,277,11.0,12.0,91,0.00,,---,0.00,0.00,VWS V14.01,2013-02-22 05:39:00,
2013-02-21 23:40:00,16.5,14.3,29.74,WNW,298,9.0,12.0,91,0.00,,---,0.00,0.00,VWS V14.01,2013-02-22 05:40:00,
2013-02-21 23:44:00,16.2,14.0,29.76,NW,311,9.0,12.0,91,0.00,,---,0.00,7.00,VWS V14.01,2013-02-22 05:44:00,
2013-02-21 23:45:00,16.2,14.0,29.76,North,354,7.0,12.0,91,0.00,,---,0.00,7.00,VWS V14.01,2013-02-22 05:45:00,
2013-02-21 23:49:00,16.1,13.9,29.76,WNW,299,9.0,13.0,91,0.00,,---,0.00,9.00,VWS V14.01,2013-02-22 05:49:00,
2013-02-21 23:50:00,16.1,13.9,29.76,NNW,333,7.0,13.0,91,0.00,,---,0.00,9.00,VWS V14.01,2013-02-22 05:50:00,
2013-02-21 23:54:00,15.9,13.7,29.76,NNW,332,7.0,11.0,91,0.00,,---,0.00,7.00,VWS V14.01,2013-02-22 05:54:00,
2013-02-21 23:55:00,15.9,13.7,29.76,NNW,332,7.0,11.0,91,0.00,,---,0.00,7.00,VWS V14.01,2013-02-22 05:55:00,
2013-02-21 23:59:00,15.6,13.4,29.76,WNW,289,8.0,10.0,91,0.00,,---,0.00,7.00,VWS V14.01,2013-02-22 05:59:00,